FW8071 Weather Reports


time (UTC)temp
C
wind
direction
speed
KPH
gust
KPH
rain 1hr
cm
rain 24hr
cm
rain mn
cm
humidity
%
barometer
mb
20260504081945 8 286 3.2 3.2 0.00 0.00 0.00 77 1006.7
20260504081442 8 295 3.2 3.2 0.00 0.00 0.00 77 1006.9
20260504080937 8 295 3.2 3.2 0.00 0.00 0.00 77 1007.2
20260504080434 8 243 6.4 8.0 0.00 0.00 0.00 77 1007.0
20260504070402 8 240 8.0 9.7 0.00 0.00 0.00 75 1006.9
20260504050749 9 223 12.9 16.1 0.00 0.00 0.00 61 1007.5
20260504050247 9 278 4.8 9.7 0.00 0.00 0.00 60 1007.4
20260504045744 9 249 11.3 12.9 0.00 0.00 0.00 59 1007.7
20260504045239 9 290 8.0 9.7 0.00 0.00 0.00 59 1007.5
20260504044737 9 292 6.4 8.0 0.00 0.00 0.00 59 1007.6
20260504044234 9 273 9.7 11.3 0.00 0.00 0.00 59 1007.7
20260504043731 9 279 6.4 8.0 0.00 0.00 0.00 59 1007.6
20260504043228 9 213 11.3 14.5 0.00 0.00 0.00 58 1007.6
20260504042726 9 261 6.4 8.0 0.00 0.00 0.00 57 1007.5
20260504042222 8 309 4.8 4.8 0.00 0.00 0.00 56 1007.7
20260504041718 8 276 3.2 3.2 0.00 0.00 0.00 55 1007.7
20260504041214 8 290 8.0 9.7 0.00 0.00 0.00 53 1007.7
20260504040710 8 266 8.0 11.3 0.00 0.00 0.00 52 1007.6
20260504040208 8 266 8.0 11.3 0.00 0.00 0.00 52 1007.6
20260504035704 8 252 6.4 11.3 0.00 0.00 0.00 52 1007.5
20260504035202 8 245 6.4 9.7 0.00 0.00 0.00 52 1007.6
20260504034659 8 274 4.8 4.8 0.00 0.00 0.00 52 1007.5
20260504034155 7 286 6.4 9.7 0.00 0.00 0.00 52 1007.8
20260504033653 7 246 4.8 4.8 0.00 0.00 0.00 53 1008.0
20260504033150 7 308 4.8 4.8 0.00 0.00 0.00 53 1007.7
20260504032647 7 299 4.8 4.8 0.00 0.00 0.00 53 1007.7
20260504032144 7 310 3.2 3.2 0.00 0.00 0.00 53 1007.9
20260504031641 7 275 4.8 8.0 0.00 0.00 0.00 53 1007.9
20260504031138 7 312 1.6 3.2 0.00 0.00 0.00 53 1007.9
20260504030634 7 285 3.2 4.8 0.00 0.00 0.00 53 1007.9
20260504030131 7 309 3.2 3.2 0.00 0.00 0.00 53 1007.9
20260504025628 6 303 4.8 4.8 0.00 0.00 0.00 53 1007.7
20260504025125 6 295 3.2 3.2 0.00 0.00 0.00 53 1007.7
20260504024622 6 253 4.8 4.8 0.00 0.00 0.00 53 1007.7
20260504024118 6 253 4.8 4.8 0.00 0.00 0.00 53 1007.8
20260504023615 6 290 4.8 4.8 0.00 0.00 0.00 53 1007.9
20260504023111 6 286 3.2 3.2 0.00 0.00 0.00 52 1008.2
20260504022608 6 302 3.2 3.2 0.00 0.00 0.00 53 1008.2
20260504022103 6 316 1.6 1.6 0.00 0.00 0.00 53 1008.1
20260504021602 7 322 1.6 1.6 0.00 0.00 0.00 53 1008.2
20260504021058 7 315 3.2 3.2 0.00 0.00 0.00 52 1008.1
20260504020555 7 315 1.6 3.2 0.00 0.00 0.00 52 1008.4
20260504020051 7 311 1.6 3.2 0.00 0.00 0.00 51 1008.3
20260504015548 7 310 3.2 3.2 0.00 0.00 0.00 52 1008.4
20260504015044 7 315 1.6 3.2 0.00 0.00 0.00 52 1008.1
20260504014540 7 324 1.6 1.6 0.00 0.00 0.00 53 1008.3
20260504014038 7 321 1.6 1.6 0.00 0.00 0.00 51 1008.2
20260504013535 7 320 1.6 1.6 0.00 0.00 0.00 52 1008.4
20260504013032 7 314 1.6 3.2 0.00 0.00 0.00 51 1008.4
20260504012530 7 317 1.6 1.6 0.00 0.00 0.00 50 1008.3
20260504012027 8 277 3.2 4.8 0.00 0.00 0.00 50 1008.4
20260504011524 8 310 1.6 3.2 0.00 0.00 0.00 49 1008.5
20260504011020 8 302 3.2 3.2 0.00 0.00 0.00 49 1008.3
20260504010515 8 254 6.4 9.7 0.00 0.00 0.00 50 1008.3
20260504010012 7 305 3.2 3.2 0.00 0.00 0.00 52 1008.3
20260504005509 7 303 3.2 3.2 0.00 0.00 0.00 52 1008.2
20260504005006 7 312 1.6 3.2 0.00 0.00 0.00 56 1008.3
20260504004504 7 332 1.6 1.6 0.00 0.00 0.00 60 1008.2
20260504004000 7 333 0.0 0.0 0.00 0.00 0.00 59 1008.1
20260504003456 7 333 0.0 1.6 0.00 0.00 0.00 59 1008.2
20260504002954 7 333 0.0 0.0 0.00 0.00 0.00 57 1008.0
20260504002450 8 333 1.6 1.6 0.00 0.00 0.00 55 1008.0
20260504001948 8 333 1.6 1.6 0.00 0.00 0.00 54 1008.1
20260504001445 8 333 0.0 1.6 0.00 0.00 0.00 54 1008.1
20260504000942 8 333 0.0 0.0 0.00 0.00 0.00 52 1007.9
20260504000439 9 332 0.0 0.0 0.00 0.00 0.00 48 1007.9
20260503235936 10 323 1.6 1.6 0.00 0.00 0.00 48 1008.1
20260503235434 10 329 0.0 1.6 0.00 0.00 0.00 47 1008.0
20260503234931 10 314 1.6 1.6 0.00 0.00 0.00 44 1007.7
20260503234429 10 312 1.6 3.2 0.00 0.00 0.00 44 1007.8
20260503233926 10 317 1.6 3.2 0.00 0.00 0.00 43 1007.8
20260503233423 11 320 1.6 3.2 0.00 0.00 0.00 41 1007.9
20260503232919 11 328 1.6 1.6 0.00 0.00 0.00 40 1007.9
20260503232416 11 335 1.6 1.6 0.00 0.00 0.00 40 1007.7
20260503231914 11 332 1.6 1.6 0.00 0.00 0.00 39 1007.8
20260503231411 11 284 3.2 3.2 0.00 0.00 0.00 39 1007.7
20260503230907 11 318 3.2 3.2 0.00 0.00 0.00 39 1007.9
20260503230404 11 305 4.8 4.8 0.00 0.00 0.00 38 1007.8
20260503225902 11 260 8.0 9.7 0.00 0.00 0.00 38 1007.8
20260503225357 12 293 9.7 12.9 0.00 0.00 0.00 38 1007.8
20260503224854 12 313 4.8 4.8 0.00 0.00 0.00 37 1007.6
20260503224351 12 308 4.8 8.0 0.00 0.00 0.00 38 1007.8
20260503223849 12 301 4.8 8.0 0.00 0.00 0.00 37 1007.8
20260503223347 12 310 3.2 4.8 0.00 0.00 0.00 37 1007.9
20260503222842 12 319 4.8 8.0 0.00 0.00 0.00 37 1007.5
20260503222341 12 278 8.0 9.7 0.00 0.00 0.00 37 1007.6
20260503221838 12 318 4.8 4.8 0.00 0.00 0.00 38 1008.0
20260503221337 12 320 6.4 8.0 0.00 0.00 0.00 37 1007.8
20260503220832 11 316 4.8 4.8 0.00 0.00 0.00 38 1007.7
20260503220329 11 314 3.2 4.8 0.00 0.00 0.00 37 1007.9
20260503215826 12 347 4.8 4.8 0.00 0.00 0.00 38 1007.9
20260503215323 12 336 1.6 3.2 0.00 0.00 0.00 38 1007.8
20260503214821 12 268 4.8 8.0 0.00 0.00 0.00 38 1007.8
20260503214318 12 340 1.6 1.6 0.00 0.00 0.00 40 1007.9
20260503213815 12 339 1.6 3.2 0.00 0.00 0.00 40 1007.8
20260503213313 11 311 4.8 4.8 0.00 0.00 0.00 39 1008.0
20260503212810 11 327 6.4 9.7 0.00 0.00 0.00 39 1007.8
20260503212308 12 342 4.8 8.0 0.00 0.00 0.00 38 1007.8
20260503211805 11 335 4.8 4.8 0.00 0.00 0.00 37 1007.8
20260503211302 11 297 4.8 4.8 0.00 0.00 0.00 37 1007.8
20260503210801 12 318 6.4 8.0 0.00 0.00 0.00 37 1007.7
20260503210259 12 324 3.2 3.2 0.00 0.00 0.00 38 1007.7
20260503205754 12 299 9.7 14.5 0.00 0.00 0.00 36 1007.6
20260503205251 12 314 3.2 4.8 0.00 0.00 0.00 39 1008.0
20260503204747 12 305 8.0 11.3 0.00 0.00 0.00 38 1007.9
20260503204245 12 312 4.8 8.0 0.00 0.00 0.00 37 1008.1
20260503203742 12 308 6.4 8.0 0.00 0.00 0.00 37 1007.8
20260503203240 12 333 3.2 4.8 0.00 0.00 0.00 37 1007.8
20260503202737 12 327 8.0 9.7 0.00 0.00 0.00 37 1007.8
20260503202234 12 339 1.6 1.6 0.00 0.00 0.00 37 1007.8
20260503201732 11 301 4.8 11.3 0.00 0.00 0.00 38 1007.8
20260503201229 12 297 6.4 9.7 0.00 0.00 0.00 37 1008.0
20260503200726 13 330 4.8 8.0 0.00 0.00 0.00 37 1008.0
20260503200222 12 323 1.6 3.2 0.00 0.00 0.00 37 1007.8
20260503195719 12 287 11.3 12.9 0.00 0.00 0.00 36 1008.0
20260503195216 11 18 6.4 9.7 0.00 0.00 0.00 39 1008.2
20260503194713 11 330 4.8 4.8 0.00 0.00 0.00 39 1008.3
20260503194209 11 317 6.4 8.0 0.00 0.00 0.00 39 1008.2
20260503193705 11 308 4.8 9.7 0.00 0.00 0.00 40 1008.5
20260503193201 11 317 4.8 9.7 0.00 0.00 0.00 39 1008.3
20260503192657 11 321 4.8 4.8 0.00 0.00 0.00 41 1008.6
20260503192152 11 328 6.4 8.0 0.00 0.00 0.00 40 1008.5
20260503191649 11 332 3.2 4.8 0.00 0.00 0.00 41 1008.5
20260503191147 12 309 4.8 4.8 0.00 0.00 0.00 40 1008.3
20260503190643 11 10 4.8 8.0 0.00 0.00 0.00 39 1008.4
20260503190140 11 316 3.2 4.8 0.00 0.00 0.00 42 1008.6
20260503185637 10 334 8.0 9.7 0.00 0.00 0.00 43 1008.8
20260503185132 10 310 9.7 12.9 0.00 0.00 0.00 43 1009.0
20260503184627 10 304 4.8 4.8 0.00 0.00 0.00 44 1008.7
20260503184124 10 284 9.7 11.3 0.00 0.00 0.00 43 1008.9
20260503183621 10 297 4.8 4.8 0.00 0.00 0.00 45 1009.0
20260503183118 10 295 8.0 9.7 0.00 0.00 0.00 44 1008.8
20260503182616 10 244 6.4 12.9 0.00 0.00 0.00 46 1009.2
20260503182114 10 288 6.4 8.0 0.00 0.00 0.00 48 1009.3
20260503181611 10 340 6.4 9.7 0.00 0.00 0.00 48 1009.1
20260503181108 10 296 3.2 8.0 0.00 0.00 0.00 47 1009.2
20260503180605 10 309 8.0 11.3 0.00 0.00 0.00 46 1009.0
20260503180103 10 308 4.8 4.8 0.00 0.00 0.00 46 1009.3
20260503175559 10 332 1.6 1.6 0.00 0.00 0.00 46 1009.2
20260503175056 10 2 4.8 9.7 0.00 0.00 0.00 46 1009.4
20260503174553 10 288 3.2 8.0 0.00 0.00 0.00 46 1009.3
20260503174050 10 284 4.8 8.0 0.00 0.00 0.00 46 1009.2
20260503173545 10 3 11.3 12.9 0.00 0.00 0.00 45 1009.3
20260503173041 10 328 4.8 8.0 0.00 0.00 0.00 44 1009.3
20260503172539 10 290 9.7 12.9 0.00 0.00 0.00 44 1009.5
20260503172036 10 287 8.0 9.7 0.00 0.00 0.00 45 1009.3
20260503171532 10 323 8.0 11.3 0.00 0.00 0.00 45 1009.3
20260503171030 10 345 1.6 3.2 0.00 0.00 0.00 46 1009.3
20260503170526 10 325 3.2 4.8 0.00 0.00 0.00 46 1009.4
20260503150918 9 340 1.6 1.6 0.00 0.00 0.00 50 1010.6
20260503150415 9 289 4.8 8.0 0.00 0.00 0.00 47 1010.7
20260503131308 8 58 3.2 9.7 0.00 0.00 0.00 62 1011.4
20260503130806 8 338 3.2 3.2 0.00 0.00 0.00 64 1011.3
20260503130303 8 347 4.8 4.8 0.00 0.00 0.00 65 1011.1
20260503110657 5 333 1.6 3.2 0.00 0.00 0.00 82 1011.1
20260503110154 5 319 3.2 4.8 0.00 0.00 0.00 82 1011.2
20260503100115 5 310 6.4 8.0 0.00 0.00 0.00 81 1010.6